Location: Newark
(40.7066°N, 111.8219°W)
Time: 04:40:53
(UTC+00:00)

Transit 2A Rocket - Pass Details

Date: 25 November 2019
Orbit: 594 x 909 km, 66.7° (Epoch: 15 December)

Event Time Altitude Azimuth Distance (km) Brightness Sun altitude
Rises 13:46:08 0° 311° (NW) 2,877 - -7.6°
Exits shadow 13:48:42 - 294° (WNW) 2,092 6.6 -7.2°
Reaches altitude 10° 13:49:05 10° 290° (WNW) 2,002 6.5 -7.1°
Maximum altitude 13:51:50 16° 252° (WSW) 1,667 6.3 -6.6°
Drops below altitude 10° 13:54:41 10° 214° (SW) 2,084 7.2 -6.1°
Sets 13:57:51 0° 193° (SSW) 3,057 8.2 -5.6°
